C/2019 L3 ( ATLAS )

Japanese version
Home page
Updated on November 10, 2019

---------------------------------------------------------------------

* Profile

Discovery Date June 10, 2019
Magnitude 18.1 mag
Discoverer Asteroid Terrestrial-Impact Last Alert System (ATLAS) search program

* Pictures

* Orbital Elements

Epoch 2022 Jan. 21.0 TT = JDT 2459600.5
T 2022 Jan.  9.49590 TT                                 Williams
q   3.5540671            (2000.0)            P               Q
z  -0.0005107      Peri.  171.61080     -0.26051058     -0.66631154
 +/-0.0000186      Node   290.78950     +0.83676364     +0.20518210
e   1.0018150      Incl.   48.36099     +0.48162314     -0.71688858
From 314 observations 2019 June 10-Oct. 31, mean residual 0".4.

* Finding Charts

* Magnitudes Graph

        m1 = 4.5 + 5 log d + 10.0 log r

---------------------------------------------------------------------

The orbital elements are published on M.P.E.C. 2019-V116.
The charts are made with StellaNavigator Ver.10 (AstroArts).
The magnitudes graphs are made with Comet for Windows.

---------------------------------------------------------------------

Copyright(C) Seiichi Yoshida (comet@aerith.net). All rights reserved.